Location: Hermaringen
(48.5952°N, 10.2585°E)
Time: 02:45:59
(UTC+00:00)

CZ-4C R/B - Pass Details

Date: 18 November 2025
Orbit: 487 x 1492 km, 63.4° (Epoch: 04 December)

Event Time Altitude Azimuth Distance (km) Brightness Sun altitude
Rises 16:55:31 0° 275° (W) 2,964 6.5 -13.0°
Reaches altitude 10° 16:58:02 10° 291° (WNW) 2,191 5.2 -13.4°
Maximum altitude 17:02:04 23° 344° (NNW) 1,678 3.8 -14.1°
Enters shadow 17:06:47 11° 35° (NE) 2,663 4.4 -14.8°
